Simultaneous Nadir Overpasses (SNOs) Predictions

Prediction of SNOs between AQUA and NOAA-19 Satellite Orbit:

Table of predicted SNOs for the next 14.0 days since TLE Epoch: 8/14/2020
Index Date (AQUA) Time (AQUA) Lat,Lon (AQUA) SZA (AQUA ) Date (NOAA-19) Time (NOAA-19) Lat,Lon (NOAA-19) SZA (NOAA-19 ) Distance(km) Time Diff (sec)
1 08/15/2020 02:59:04 79.62, 107.61 66.99 08/15/2020 02:58:30 79.60, 107.69 66.98 2.54 34
2 08/15/2020 03:48:30 -79.63, -84.84 112.99 08/15/2020 03:49:29 -79.63, -84.67 113.02 3.40 59
3 08/17/2020 08:32:47 -79.59,-155.63 112.36 08/17/2020 08:31:46 -79.59,-155.62 112.34 0.29 61
4 08/17/2020 09:22:15 79.61, 11.83 67.69 08/17/2020 09:22:46 79.61, 11.85 67.67 0.42 31
5 08/19/2020 14:55:58 -79.59, 108.59 111.65 08/19/2020 14:56:01 -79.61, 108.65 111.63 3.19 3
6 08/21/2020 20:29:43 79.58,-154.81 69.08 08/21/2020 20:29:19 79.59,-154.85 69.10 1.10 24
7 08/21/2020 21:19:10 -79.62, 12.54 110.85 08/21/2020 21:20:17 -79.61, 12.62 110.90 2.25 67
8 08/24/2020 02:03:27 -79.59, -58.30 110.17 08/24/2020 02:02:34 -79.56, -58.37 110.17 3.73 53
9 08/24/2020 02:52:54 79.58, 109.37 69.84 08/24/2020 02:53:35 79.59, 109.25 69.84 2.64 41
10 08/26/2020 08:26:38 -79.59,-154.11 109.40 08/26/2020 08:26:49 -79.58,-154.14 109.41 1.62 11
11 08/28/2020 14:00:22 79.56, -57.35 71.33 08/28/2020 14:00:07 79.59, -57.27 71.35 3.07 15
